#timestamp,LO_Frequency,Hit 
1502146815.7,286047000.4,N
1502146835.5,286046998.6,N
1502146855.4,286047000.7,N
1502146875.2,286046998.3,N
1502146895.0,286046999.6,N
1502146895.9,286046999.6,N
1502146915.8,286046997.2,N
1502146935.6,286046995.4,N
1502146955.4,286046999.2,N
1502146975.3,286046998.1,N
1502146995.1,286046995.5,N
1502146996.0,286046995.5,N
1502147015.8,286046998.0,N
1502147035.6,286046997.3,N
1502147055.5,286046993.4,N
1502147075.3,286046995.8,N
1502147095.1,286046995.4,N
1502147115.9,286046995.9,N
1502147135.7,286046997.9,N
1502147155.5,286046996.6,N
1502147175.4,286046999.4,N
1502147195.2,286046997.7,N
1502147215.0,286046997.8,N
1502147215.9,286046997.8,N
1502147235.8,286046996.8,N
1502147255.6,286046996.8,N
1502147275.4,286046995.0,N
1502147295.3,286046994.9,N
1502147315.1,286046995.0,N
1502147316.0,286046995.0,N
1502147335.8,286046999.0,N
1502147355.7,286046997.7,N
1502147375.5,286046997.8,N
1502147395.3,286046997.2,N
1502147415.2,286046995.4,N
1502147435.9,286046997.1,N
1502147455.7,286046997.9,N
1502147475.5,286046997.0,N
1502147495.4,286046997.7,N
1502147515.2,286046997.1,N
1502147535.0,286046996.9,N
1502147535.9,286046996.9,N
1502147555.8,286046996.8,N
1502147575.6,286046999.0,N
1502147595.4,286047000.6,N
1502147615.3,286046998.1,N
1502147635.1,286046999.3,N
1502147636.0,286046999.3,N
1502147655.8,286046998.8,N
1502147675.7,286046999.5,N
1502147695.5,286046997.9,N
1502147715.3,286046997.2,N
1502147735.2,286047000.5,N
1502147755.9,286047000.4,N
1502147775.7,286047000.8,N
1502147795.6,286046996.5,N
1502147815.4,286046996.7,N
1502147835.2,286046996.6,N
1502147855.0,286046999.6,N
1502147856.0,286046999.6,N
1502147875.8,286047001.2,N
1502147895.6,286046999.1,N
1502147915.5,286046995.4,P
1502147935.3,286046999.0,N
1502147955.1,286047000.6,N
1502147975.9,286047002.4,N
1502147995.7,286047001.6,N
1502148015.5,286047000.3,N
1502148035.3,286046999.7,N
1502148055.2,286046998.4,N
1502148075.0,286046998.7,N
1502148075.9,286046998.7,N
1502148095.7,286046996.8,N
1502148115.6,286046996.5,N
1502148135.4,286046995.4,N
1502148155.2,286046997.9,N
1502148175.1,286046999.6,N
1502148176.0,286046999.6,N
1502148195.8,286046998.2,N
1502148215.6,286046998.5,N
1502148235.5,286046998.2,N
1502148255.3,286046999.4,N
1502148275.1,286046999.1,N
1502148295.9,286046998.7,N
1502148315.7,286046997.0,N
1502148335.5,286046996.6,N
1502148355.4,286046997.0,N
1502148375.2,286046999.6,N
1502148395.0,286046998.5,N
1502148395.9,286046998.5,N
1502148415.8,286047001.2,N
1502148435.6,286047002.6,N
1502148455.4,286047002.8,N
1502148475.2,286047002.5,N
1502148495.1,286047002.8,N
1502148496.0,286047002.8,N
1502148515.8,286047000.0,N
1502148535.6,286046998.4,N
1502148555.5,286046998.3,N
1502148575.3,286047000.5,N
1502148595.1,286046998.2,N
1502148615.9,286046999.4,N
1502148635.7,286047002.3,N
1502148655.5,286047005.5,N
1502148675.4,286047005.7,N
1502148695.2,286047004.3,N
1502148715.0,286047003.7,N
1502148715.9,286047003.7,N
1502148735.8,286047001.4,N
1502148755.6,286047003.7,N
1502148775.4,286047001.7,N
1502148795.3,286046999.9,N
1502148815.1,286046998.9,N
1502148816.0,286046998.9,N
1502148835.8,286047000.9,N
1502148855.7,286046998.5,N
1502148875.5,286047000.7,N
1502148895.3,286047000.5,N
1502148915.1,286047001.9,N
1502148935.9,286047002.2,N
1502148955.7,286047000.1,N
1502148975.5,286047002.8,N
1502148995.4,286047002.3,N
1502149015.2,286047002.5,N
1502149035.0,286047002.7,N
1502149035.9,286047002.7,N
1502149055.8,286047000.9,N
1502149075.6,286046998.3,N
1502149095.4,286046998.8,N
1502149115.3,286046998.9,N
1502149135.1,286046994.9,N
1502149136.0,286046994.9,N
1502149155.8,286046995.7,N
1502149175.7,286046995.3,N
1502149195.5,286046997.6,N
1502149215.3,286046997.7,N
1502149235.2,286046995.8,N
1502149255.9,286046995.9,N
1502149275.7,286046995.2,N
1502149295.5,286046996.2,N
1502149315.4,286046999.0,N
1502149335.2,286046997.7,N
1502149355.0,286046999.1,N
1502149355.9,286046999.1,N
1502149375.8,286046998.2,N
1502149395.6,286047000.8,N
1502149415.4,286046998.8,N
1502149435.3,286046997.6,N
1502149455.1,286046995.2,N
1502149475.8,286046997.1,N
1502149495.7,286047001.2,N
1502149515.5,286047000.6,N
1502149535.3,286047001.5,N
1502149555.2,286047000.9,N
1502149575.9,286047000.6,N
1502149595.7,286046999.8,N
1502149615.6,286047002.3,N
1502149635.4,286047001.7,N
1502149655.2,286047006.0,N
1502149675.0,286047005.6,N
1502149675.9,286047005.6,N
1502149695.8,286047001.7,N
1502149715.6,286047003.1,N
1502149735.4,286047001.8,N
1502149755.3,286047004.4,N
1502149775.1,286047001.8,N
1502149795.8,286047004.4,N
1502149815.7,286047003.7,N
1502149835.5,286047003.6,N
1502149855.3,286047003.1,N
1502149875.2,286047002.9,N
1502149895.9,286047003.4,N
1502149915.7,286047003.9,N
1502149935.6,286047004.0,N
1502149955.4,286047007.2,N
1502149975.2,286047004.6,N
1502149995.1,286047005.2,N
1502149996.0,286047005.2,N
1502150015.8,286047003.2,N
1502150035.6,286047002.9,N
1502150055.5,286047001.7,N
1502150075.3,286047001.6,N
1502150095.1,286047001.3,N
1502150115.8,286047000.5,N
1502150135.7,286046998.5,N
1502150155.5,286046998.3,N
1502150175.3,286046998.1,N
1502150195.2,286047000.9,N
1502150215.0,286047002.7,N
1502150215.9,286047002.7,N
1502150235.7,286047001.7,N
1502150255.6,286047003.4,N
1502150275.4,286047004.1,N
1502150295.2,286047002.2,N
1502150315.1,286047001.6,N
1502150316.0,286047001.6,N
1502150335.8,286047004.3,N
1502150355.6,286047001.7,N
1502150375.5,286047004.4,N
1502150395.3,286047004.2,N
